#timestamp,LO_Frequency,Hit 
1501106415.3,286046992.6,N
1501106435.2,286046993.9,N
1501106455.9,286046994.5,N
1501106475.7,286046993.4,N
1501106495.6,286046994.7,N
1501106515.4,286046989.8,N
1501106535.2,286046979.7,N
1501106555.0,286046976.4,N
1501106555.9,286046976.4,N
1501106575.8,286046979.0,N
1501106595.6,286046989.2,N
1501106615.4,286046993.8,N
1501106635.3,286046993.0,N
1501106655.1,286046986.6,N
1501106675.8,286046986.8,N
1501106695.7,286046985.3,N
1501106715.5,286046986.8,N
1501106735.3,286046984.0,N
1501106755.2,286046982.4,N
1501106775.9,286046979.1,N
1501106795.7,286046977.1,N
1501106815.5,286046977.6,N
1501106835.4,286046984.7,N
1501106855.2,286046987.2,N
1501106875.0,286046989.0,N
1501106875.9,286046989.0,N
1501106895.8,286046992.6,N
1501106915.6,286046990.3,N
1501106935.4,286046991.1,N
1501106955.3,286046989.1,N
1501106975.1,286046989.5,N
1501106976.0,286046989.5,N
1501106995.8,286046985.6,N
1501107015.7,286046980.6,N
1501107035.5,286046975.4,N
1501107055.3,286046968.6,N
1501107075.1,286046964.6,N
1501107095.9,286046967.0,N
1501107115.7,286046965.5,N
1501107135.5,286046961.8,N
1501107155.4,286046957.5,N
1501107175.2,286046955.8,N
1501107195.0,286046954.5,N
1501107195.9,286046954.5,N
1501107215.8,286046952.3,N
1501107235.6,286046950.5,N
1501107255.4,286046948.9,N
1501107275.3,286046949.2,N
1501107295.1,286046950.6,N
1501107296.0,286046950.6,N
1501107315.8,286046956.3,N
1501107335.7,286046956.3,N
1501107355.8,286046953.1,N
1501107375.7,286046954.0,N
1501107395.5,286046955.6,N
1501107415.3,286046955.2,N
1501107435.2,286046951.8,N
1501107455.9,286046952.7,N
1501107475.7,286046947.2,N
1501107495.6,286046942.9,N
1501107515.4,286046941.4,N
1501107535.2,286046941.8,N
1501107555.1,286046941.5,N
1501107556.0,286046941.5,N
1501107575.8,286046939.1,N
1501107595.8,286046939.6,N
1501107615.6,286046941.8,N
1501107635.4,286046943.1,N
1501107655.3,286046945.4,N
1501107675.1,286046955.1,N
1501107676.0,286046955.1,N
1501107695.8,286046959.2,N
1501107715.6,286046959.2,N
1501107735.5,286046965.8,N
1501107755.3,286046963.3,N
1501107775.1,286046967.3,N
1501107795.9,286046966.2,N
1501107815.7,286046965.8,N
1501107835.5,286046961.6,N
1501107855.4,286046956.8,N
1501107875.2,286046955.8,N
1501107895.0,286046952.8,N
1501107895.9,286046952.8,N
1501107915.8,286046947.1,N
1501107935.6,286046944.6,N
1501107955.4,286046943.5,N
1501107975.2,286046939.7,N
1501107995.1,286046940.5,N
1501107996.0,286046940.5,N
1501108015.8,286046942.5,N
1501108035.6,286046945.7,N
1501108055.5,286046949.5,N
1501108075.3,286046949.5,N
1501108095.1,286046945.3,N
1501108115.9,286046949.8,N
1501108135.7,286046947.0,N
1501108155.5,286046950.4,N
1501108175.4,286046949.1,N
1501108195.2,286046948.3,N
1501108215.0,286046942.7,N
1501108215.9,286046942.7,N
1501108235.8,286046943.8,N
1501108255.6,286046951.4,N
1501108275.4,286046952.2,N
1501108295.2,286046954.3,N
1501108315.1,286046952.3,N
1501108316.0,286046952.3,N
1501108335.8,286046949.7,N
1501108355.6,286046946.3,N
1501108375.5,286046944.6,N
1501108395.3,286046946.7,N
1501108415.1,286046948.4,N
1501108435.9,286046946.6,N
1501108455.7,286046948.0,N
1501108475.5,286046949.5,N
1501108495.4,286046950.4,N
1501108515.2,286046949.3,N
1501108535.0,286046946.5,N
1501108535.9,286046946.5,N
1501108555.7,286046949.9,N
1501108575.6,286046946.2,N
1501108595.4,286046946.7,N
1501108615.2,286046945.5,N
1501108635.1,286046951.8,N
1501108636.0,286046951.8,N
1501108655.8,286046951.7,N
1501108675.6,286046951.6,N
1501108695.5,286046947.6,N
1501108715.3,286046944.3,N
1501108735.1,286046943.0,N
1501108755.9,286046940.1,N
1501108775.7,286046940.4,N
1501108795.5,286046937.8,N
1501108815.3,286046939.5,N
1501108835.2,286046940.1,N
1501108855.0,286046937.4,N
1501108875.9,286046935.7,N
1501108895.7,286046935.8,N
1501108915.5,286046936.9,N
1501108935.4,286046934.9,N
1501108955.2,286046934.4,N
1501108975.0,286046934.4,N
1501108975.9,286046934.4,N
1501108995.8,286046934.1,N
1501109015.6,286046937.2,N
1501109035.4,286046937.4,N
1501109055.3,286046939.1,N
1501109075.1,286046943.5,N
1501109076.0,286046943.5,N
1501109095.8,286046944.6,N
1501109115.7,286046942.1,N
1501109135.5,286046947.6,N
1501109155.3,286046951.3,N
1501109175.1,286046949.9,N
1501109195.9,286046949.2,N
1501109215.7,286046948.6,N
1501109235.5,286046954.4,N
1501109255.4,286046952.7,N
1501109275.2,286046947.7,N
1501109295.0,286046947.0,N
1501109295.9,286046947.0,N
1501109315.8,286046952.9,N
1501109335.6,286046946.9,N
1501109355.4,286046944.3,N
1501109375.3,286046942.5,N
1501109395.1,286046943.5,N
1501109396.0,286046943.5,N
1501109415.8,286046940.0,N
1501109435.6,286046938.8,N
1501109455.5,286046936.4,N
1501109475.3,286046933.0,N
1501109495.1,286046933.2,N
1501109515.9,286046934.9,N
1501109535.7,286046938.3,N
1501109555.5,286046941.6,N
1501109575.4,286046937.5,N
1501109595.2,286046938.2,N
1501109615.0,286046935.7,N
1501109615.9,286046935.7,N
1501109635.8,286046938.4,N
1501109655.6,286046937.6,N
1501109675.4,286046940.9,N
1501109695.2,286046943.8,N
1501109715.1,286046946.5,N
1501109716.0,286046946.5,N
1501109735.8,286046945.5,N
1501109755.6,286046944.1,N
1501109775.5,286046942.7,N
1501109795.3,286046943.9,N
1501109815.1,286046943.9,N
1501109835.9,286046948.0,N
1501109855.7,286046946.2,N
1501109875.5,286046948.2,N
1501109895.4,286046942.1,N
1501109915.2,286046943.0,N
1501109935.0,286046943.1,N
1501109935.9,286046943.1,N
1501109955.7,286046943.5,N
1501109975.6,286046942.0,N
1501109995.4,286046935.8,N
